EW6281 Weather Reports


Display with metric or nautical units.
time (UTC)temp
F
wind
direction
speed
MPH
gust
MPH
rain 1hr
in
rain 24hr
in
rain mn
in
humidity
%
barometer
mb
20260507104558 51 0 0.0 2.0 0.00 0.00 0.00 75 1016.4
20260507103058 51 0 0.0 2.0 0.00 0.00 0.00 74 1016.4
20260507101557 52 0 0.0 4.0 0.00 0.00 0.00 72 1016.4
20260507100058 53 267 0.0 3.0 0.00 0.00 0.00 67 1016.4
20260507094555 55 306 0.0 3.0 0.00 0.00 0.00 67 1016.4
20260507093054 57 0 0.0 9.0 0.00 0.00 0.00 64 1016.4
20260507091554 56 128 1.0 4.0 0.00 0.00 0.00 67 1016.2
20260507090051 55 0 0.0 7.0 0.00 0.00 0.00 68 1016.3
20260507084556 54 0 0.0 6.0 0.00 0.00 0.00 70 1016.2
20260507083057 54 217 1.0 6.0 0.00 0.00 0.00 71 1016.3
20260507081556 54 118 0.0 4.0 0.00 0.00 0.00 74 1016.2
20260507074607 49 0 0.0 0.0 0.00 0.00 0.00 84 1016.2
20260507073102 47 0 0.0 0.0 0.00 0.00 0.00 86 1016.2
20260507071555 46 0 0.0 0.0 0.00 0.00 0.00 88 1016.2
20260507070115 46 0 0.0 0.0 0.00 0.00 0.00 89 1016.1
20260507064605 45 0 0.0 0.0 0.00 0.00 0.00 90 1016.1
20260507063059 45 0 0.0 0.0 0.00 0.00 0.00 90 1016.1
20260507061558 44 0 0.0 0.0 0.00 0.00 0.00 91 1016.1
20260507060053 42 0 0.0 0.0 0.00 0.00 0.00 90 1016.0
20260507054554 41 0 0.0 0.0 0.00 0.00 0.00 89 1015.9
20260507053053 41 0 0.0 0.0 0.00 0.00 0.00 89 1015.8
20260507051558 41 0 0.0 0.0 0.00 0.00 0.00 89 1015.8
20260507044554 42 0 0.0 0.0 0.00 0.00 0.00 88 1015.4
20260507043057 42 0 0.0 0.0 0.00 0.00 0.00 88 1015.4
20260507041555 43 0 0.0 0.0 0.00 0.00 0.00 88 1015.5
20260507040110 44 0 0.0 0.0 0.00 0.00 0.00 89 1015.3
20260507034559 44 0 0.0 0.0 0.00 0.00 0.00 89 1015.3
20260507033102 44 0 0.0 0.0 0.00 0.00 0.00 89 1015.2
20260507031604 44 0 0.0 0.0 0.00 0.00 0.00 89 1015.3
20260507030053 44 0 0.0 0.0 0.00 0.00 0.00 89 1015.2
20260507024556 44 0 0.0 0.0 0.00 0.00 0.00 89 1015.1
20260507023056 44 0 0.0 0.0 0.00 0.00 0.00 89 1015.2
20260507021605 44 0 0.0 0.0 0.00 0.00 0.00 89 1015.2
20260507020058 44 0 0.0 0.0 0.00 0.00 0.00 89 1015.1
20260507014559 45 0 0.0 0.0 0.00 0.00 0.00 89 1015.1
20260507013114 45 0 0.0 0.0 0.00 0.00 0.00 89 1015.0
20260507011553 45 0 0.0 1.0 0.00 0.00 0.00 89 1015.0
20260507010104 45 0 0.0 3.0 0.00 0.00 0.00 89 1015.2
20260507004556 45 0 0.0 1.0 0.00 0.00 0.00 89 1015.1
20260507003056 45 0 0.0 3.0 0.00 0.00 0.00 89 1015.1
20260507001556 45 0 0.0 0.0 0.00 0.00 0.00 89 1015.1
20260507000054 45 0 0.0 0.0 0.00 0.00 0.00 89 1015.0
20260506234558 45 0 0.0 1.0 0.00 0.00 0.00 88 1015.0
20260506233106 45 0 0.0 4.0 0.00 0.00 0.00 88 1015.1
20260506231600 45 0 0.0 5.0 0.00 0.00 0.00 88 1015.0
20260506230105 45 20 0.0 3.0 0.00 0.00 0.00 88 1014.9
20260506224556 45 0 0.0 4.0 0.00 0.00 0.00 88 1015.1
20260506223056 45 0 0.0 3.0 0.00 0.00 0.00 87 1015.0
20260506221600 45 0 0.0 3.0 0.00 0.00 0.00 87 1015.1
20260506220100 45 0 0.0 5.0 0.00 0.00 0.00 87 1015.0
20260506214601 45 0 0.0 4.0 0.00 0.00 0.00 87 1015.0
20260506213055 45 0 1.0 4.0 0.00 0.00 0.00 87 1015.1
20260506211607 45 0 1.0 5.0 0.00 0.00 0.00 87 1015.0
20260506210054 45 0 0.0 8.0 0.00 0.00 0.00 86 1014.9
20260506204556 45 22 1.0 8.0 0.00 0.00 0.00 86 1014.6
20260506203054 45 0 3.0 9.0 0.00 0.00 0.00 85 1014.7
20260506201553 46 17 1.0 9.0 0.00 0.00 0.00 85 1014.6
20260506200052 46 0 0.0 8.0 0.00 0.00 0.00 84 1014.4
20260506194809 46 9 3.0 6.0 0.00 0.00 0.00 83 1014.5
20260506193055 46 49 1.0 5.0 0.00 0.00 0.00 82 1014.5
20260506191555 47 0 1.0 9.0 0.00 0.00 0.00 82 1014.4
20260506190056 47 5 2.0 10.0 0.00 0.00 0.00 80 1014.4
20260506184610 48 0 3.0 9.0 0.00 0.00 0.00 78 1014.1
20260506183056 48 0 2.0 10.0 0.00 0.00 0.00 76 1014.0
20260506181553 49 11 2.0 9.0 0.00 0.00 0.00 75 1013.9
20260506180055 49 38 3.0 12.0 0.00 0.00 0.00 75 1013.7
20260506174555 50 12 3.0 9.0 0.00 0.00 0.00 75 1013.5
20260506173112 50 62 2.0 10.0 0.00 0.00 0.00 73 1013.4
20260506171609 50 10 2.0 8.0 0.00 0.00 0.00 72 1013.3
20260506164611 51 26 2.0 9.0 0.00 0.00 0.00 70 1013.1
20260506163105 51 36 2.0 11.0 0.00 0.00 0.00 68 1013.0
20260506161554 51 30 3.0 10.0 0.00 0.00 0.00 69 1013.1
20260506160110 52 33 2.0 9.0 0.00 0.00 0.00 67 1013.1
20260506154558 52 13 2.0 10.0 0.00 0.00 0.00 64 1013.0
20260506153055 52 23 2.0 8.0 0.00 0.00 0.00 64 1013.1
20260506151555 52 0 1.0 9.0 0.00 0.00 0.00 66 1013.1
20260506150053 52 342 2.0 12.0 0.00 0.00 0.00 65 1013.0
20260506144556 53 9 4.0 8.0 0.00 0.00 0.00 65 1013.1
20260506143055 52 334 4.0 10.0 0.00 0.00 0.00 65 1013.1
20260506141610 52 24 3.0 10.0 0.00 0.00 0.00 66 1012.9
20260506140054 52 10 4.0 13.0 0.00 0.00 0.00 67 1013.0
20260506134558 52 76 3.0 11.0 0.00 0.00 0.00 69 1013.0
20260506133106 53 5 2.0 10.0 0.00 0.00 0.00 70 1013.1
20260506131556 53 26 4.0 12.0 0.00 0.00 0.00 70 1013.1
20260506130055 51 9 1.0 13.0 0.00 0.00 0.00 74 1013.2
20260506124554 51 15 4.0 13.0 0.00 0.00 0.00 73 1013.2
20260506123055 50 84 2.0 12.0 0.00 0.00 0.00 76 1013.4
20260506121602 51 54 3.0 13.0 0.00 0.00 0.00 76 1013.4
20260506120120 50 346 3.0 14.0 0.00 0.00 0.00 77 1013.3
20260506114556 50 22 6.0 14.0 0.00 0.00 0.00 79 1013.3
20260506113106 48 49 4.0 12.0 0.00 0.00 0.00 82 1013.5
20260506111552 47 19 2.0 9.0 0.00 0.00 0.00 81 1013.5
20260506110058 48 11 2.0 12.0 0.00 0.00 0.00 79 1013.6